Time,TemperatureF,DewpointF,PressureIn,WindDirection,WindDirectionDegrees,WindSpeedMPH,WindSpeedGustMPH,Humidity,HourlyPrecipIn,Conditions,Clouds,dailyrainin,SoftwareType,DateUTC
2013-05-29 00:01:00,64.4,59.1,29.00,SSE,164,2.7,2.7,83,0.00,,SKC,0.00,VWS V14.01,2013-05-29 05:01:00,
2013-05-29 00:06:00,64.4,59.5,29.00,SSE,166,2.2,2.2,84,0.00,,SKC,0.00,VWS V14.01,2013-05-29 05:06:00,
2013-05-29 00:11:00,64.4,59.5,29.00,SSE,167,4.5,4.9,84,0.00,,SKC,0.00,VWS V14.01,2013-05-29 05:11:00,
2013-05-29 00:16:00,64.4,59.1,29.00,SSE,167,2.7,5.4,83,0.00,,SKC,0.00,VWS V14.01,2013-05-29 05:16:00,
2013-05-29 00:21:00,64.6,59.0,29.00,South,172,2.7,2.7,82,0.00,,SKC,0.00,VWS V14.01,2013-05-29 05:21:00,
2013-05-29 00:26:00,64.6,59.0,29.00,South,173,2.2,2.2,82,0.00,,SKC,0.00,VWS V14.01,2013-05-29 05:26:00,
2013-05-29 00:31:00,64.6,59.0,29.00,South,170,0.0,0.0,82,0.00,,SKC,0.00,VWS V14.01,2013-05-29 05:31:00,
2013-05-29 00:36:00,64.6,59.3,29.00,South,170,0.0,0.0,83,0.00,,SKC,0.00,VWS V14.01,2013-05-29 05:36:00,
2013-05-29 00:41:00,64.6,59.3,29.00,South,170,3.1,3.1,83,0.00,,SKC,0.00,VWS V14.01,2013-05-29 05:41:00,
2013-05-29 00:46:00,64.4,59.1,29.00,South,169,3.6,3.6,83,0.00,,SKC,0.00,VWS V14.01,2013-05-29 05:46:00,
2013-05-29 00:51:00,64.4,59.1,29.00,SSE,168,0.0,2.7,83,0.00,,SKC,0.00,VWS V14.01,2013-05-29 05:51:00,
2013-05-29 00:56:00,64.4,59.1,29.00,South,171,4.0,4.0,83,0.00,,SKC,0.00,VWS V14.01,2013-05-29 05:56:00,
2013-05-29 01:01:00,64.2,59.0,29.00,South,171,0.0,2.2,83,0.00,,SKC,0.00,VWS V14.01,2013-05-29 06:01:00,
2013-05-29 01:06:00,64.2,59.0,29.00,South,170,0.0,2.7,83,0.00,,SKC,0.00,VWS V14.01,2013-05-29 06:06:00,
2013-05-29 01:11:00,64.2,59.0,29.00,SSE,165,2.7,2.7,83,0.00,,SKC,0.00,VWS V14.01,2013-05-29 06:11:00,
2013-05-29 01:16:00,64.2,59.0,28.97,SSE,165,2.2,2.7,83,0.00,,SKC,0.00,VWS V14.01,2013-05-29 06:16:00,
2013-05-29 01:21:00,64.2,59.0,28.97,SW,220,4.0,4.0,83,0.00,,SKC,0.00,VWS V14.01,2013-05-29 06:21:00,
2013-05-29 01:26:00,64.2,59.3,28.97,SSE,158,0.0,0.0,84,0.00,,SKC,0.00,VWS V14.01,2013-05-29 06:26:00,
2013-05-29 01:31:00,64.2,59.6,28.97,SSE,163,0.0,2.2,85,0.00,,SKC,0.00,VWS V14.01,2013-05-29 06:31:00,
2013-05-29 01:36:00,64.4,59.5,28.97,SSE,162,2.7,2.7,84,0.00,,SKC,0.00,VWS V14.01,2013-05-29 06:36:00,
2013-05-29 01:41:00,64.4,59.1,28.97,South,178,3.1,4.5,83,0.00,,SKC,0.00,VWS V14.01,2013-05-29 06:41:00,
2013-05-29 01:46:00,64.4,59.1,28.97,SSE,167,4.0,4.0,83,0.00,,SKC,0.00,VWS V14.01,2013-05-29 06:46:00,
2013-05-29 01:51:00,64.8,59.8,28.97,South,174,4.0,4.0,84,0.00,,SKC,0.00,VWS V14.01,2013-05-29 06:51:00,
2013-05-29 01:56:00,64.9,60.0,28.97,SSE,167,3.1,5.4,84,0.00,,SKC,0.00,VWS V14.01,2013-05-29 06:56:00,
2013-05-29 02:01:00,65.1,59.8,28.97,South,169,2.7,2.7,83,0.00,,SKC,0.00,VWS V14.01,2013-05-29 07:01:00,
2013-05-29 02:06:00,65.3,59.7,28.97,South,176,4.0,4.9,82,0.00,,SKC,0.00,VWS V14.01,2013-05-29 07:06:00,
2013-05-29 02:11:00,65.5,59.5,28.97,SSE,154,2.2,3.1,81,0.00,,SKC,0.00,VWS V14.01,2013-05-29 07:11:00,
2013-05-29 02:16:00,65.7,59.0,28.97,SSE,164,2.7,4.9,79,0.00,,SKC,0.00,VWS V14.01,2013-05-29 07:16:00,
2013-05-29 02:21:00,65.8,58.8,28.97,SSE,164,4.9,4.9,78,0.00,,SKC,0.00,VWS V14.01,2013-05-29 07:21:00,
2013-05-29 02:26:00,66.0,58.6,28.97,SSE,166,3.6,3.6,77,0.00,,SKC,0.00,VWS V14.01,2013-05-29 07:26:00,
2013-05-29 02:31:00,66.2,58.0,28.97,SSE,160,3.6,4.0,75,0.00,,SKC,0.00,VWS V14.01,2013-05-29 07:31:00,
2013-05-29 02:36:00,66.6,58.0,28.97,SSE,167,3.1,3.1,74,0.00,,SKC,0.00,VWS V14.01,2013-05-29 07:36:00,
2013-05-29 02:41:00,66.7,57.4,28.97,SSE,155,3.6,3.6,72,0.00,,SKC,0.00,VWS V14.01,2013-05-29 07:41:00,
2013-05-29 02:46:00,67.1,57.8,28.97,SSE,153,5.8,5.8,72,0.00,,SKC,0.00,VWS V14.01,2013-05-29 07:46:00,
2013-05-29 02:51:00,67.5,57.7,28.97,South,187,4.0,4.0,71,0.00,,SKC,0.00,VWS V14.01,2013-05-29 07:51:00,
2013-05-29 02:56:00,67.6,57.1,28.97,South,184,6.7,8.1,69,0.00,,SKC,0.00,VWS V14.01,2013-05-29 07:56:00,
2013-05-29 03:01:00,67.8,56.9,29.00,South,177,3.1,3.1,68,0.00,,SKC,0.00,VWS V14.01,2013-05-29 08:01:00,
2013-05-29 03:06:00,68.0,57.5,29.00,South,190,2.7,6.3,69,0.00,,SKC,0.00,VWS V14.01,2013-05-29 08:06:00,
2013-05-29 03:11:00,68.0,57.5,29.00,SSW,192,4.9,5.8,69,0.00,,SKC,0.00,VWS V14.01,2013-05-29 08:11:00,
2013-05-29 03:16:00,68.2,58.0,29.00,SSW,195,2.7,4.0,70,0.00,,SKC,0.00,VWS V14.01,2013-05-29 08:16:00,
2013-05-29 03:21:00,68.2,58.0,29.00,SSE,164,3.6,3.6,70,0.00,,SKC,0.00,VWS V14.01,2013-05-29 08:21:00,
2013-05-29 03:25:00,68.0,59.0,29.00,SSE,160,3.1,3.1,73,0.00,,SKC,0.00,VWS V14.01,2013-05-29 08:25:00,
2013-05-29 03:30:00,67.8,60.0,28.97,South,184,3.6,4.0,76,0.00,,SKC,0.00,VWS V14.01,2013-05-29 08:30:00,
2013-05-29 03:35:00,67.6,60.5,28.97,South,180,3.6,6.7,78,0.00,,SKC,0.00,VWS V14.01,2013-05-29 08:35:00,
2013-05-29 03:40:00,67.5,60.4,28.97,South,184,2.7,4.9,78,0.00,,SKC,0.00,VWS V14.01,2013-05-29 08:40:00,
2013-05-29 03:45:00,67.3,59.5,28.97,South,173,3.1,4.0,76,0.00,,SKC,0.00,VWS V14.01,2013-05-29 08:45:00,
2013-05-29 03:50:00,67.1,58.5,28.97,South,172,4.9,8.1,74,0.00,,SKC,0.00,VWS V14.01,2013-05-29 08:50:00,
2013-05-29 03:55:00,66.9,57.6,28.97,South,184,4.0,5.4,72,0.00,,SKC,0.00,VWS V14.01,2013-05-29 08:55:00,
2013-05-29 04:00:00,67.1,58.5,28.97,South,187,4.0,6.3,74,0.00,,SKC,0.00,VWS V14.01,2013-05-29 09:00:00,
2013-05-29 04:05:00,67.1,59.3,28.97,South,176,2.7,4.9,76,0.00,,SKC,0.00,VWS V14.01,2013-05-29 09:05:00,
2013-05-29 04:10:00,67.1,59.7,28.97,South,184,4.0,5.8,77,0.00,,SKC,0.00,VWS V14.01,2013-05-29 09:10:00,
2013-05-29 04:15:00,66.9,59.1,28.94,South,180,4.0,5.4,76,0.00,,SKC,0.00,VWS V14.01,2013-05-29 09:15:00,
2013-05-29 04:20:00,66.7,58.2,28.94,South,172,0.0,4.9,74,0.00,,SKC,0.00,VWS V14.01,2013-05-29 09:20:00,
2013-05-29 04:25:00,66.7,57.4,28.94,South,182,6.3,6.3,72,0.00,,SKC,0.00,VWS V14.01,2013-05-29 09:25:00,
2013-05-29 04:30:00,66.6,56.9,28.97,South,191,4.0,6.3,71,0.00,,SKC,0.00,VWS V14.01,2013-05-29 09:30:00,
2013-05-29 04:35:00,66.6,55.7,28.97,South,174,3.1,5.4,68,0.00,,SKC,0.00,VWS V14.01,2013-05-29 09:35:00,
2013-05-29 04:40:00,66.4,55.5,28.97,SSE,164,3.6,4.0,68,0.00,,SKC,0.00,VWS V14.01,2013-05-29 09:40:00,
2013-05-29 04:45:00,66.4,56.3,28.97,South,171,5.8,6.3,70,0.00,,SKC,0.00,VWS V14.01,2013-05-29 09:45:00,
2013-05-29 04:50:00,66.2,56.5,28.97,SSE,150,3.6,4.9,71,0.00,,SKC,0.00,VWS V14.01,2013-05-29 09:50:00,
2013-05-29 04:55:00,66.2,56.5,28.97,South,181,3.6,5.8,71,0.00,,SKC,0.00,VWS V14.01,2013-05-29 09:55:00,
2013-05-29 05:00:00,66.2,56.1,29.00,South,191,5.4,5.4,70,0.00,,SKC,0.00,VWS V14.01,2013-05-29 10:00:00,
2013-05-29 05:05:00,66.2,56.1,29.00,SSE,167,3.6,4.0,70,0.00,,SKC,0.00,VWS V14.01,2013-05-29 10:05:00,
2013-05-29 05:10:00,66.2,56.5,29.00,South,174,2.2,6.3,71,0.00,,SKC,0.00,VWS V14.01,2013-05-29 10:10:00,
2013-05-29 05:15:00,66.0,56.7,29.00,South,173,5.4,5.8,72,0.00,,SKC,0.00,VWS V14.01,2013-05-29 10:15:00,
2013-05-29 05:20:00,66.0,57.1,29.00,South,169,4.0,4.9,73,0.00,,SKC,0.00,VWS V14.01,2013-05-29 10:20:00,
2013-05-29 05:25:00,66.0,56.7,29.00,SSE,168,3.6,4.5,72,0.00,,SKC,0.00,VWS V14.01,2013-05-29 10:25:00,
2013-05-29 05:30:00,66.0,56.4,29.03,SSE,168,2.7,5.4,71,0.00,,SKC,0.00,VWS V14.01,2013-05-29 10:30:00,
2013-05-29 05:35:00,65.8,56.2,29.03,South,190,6.3,6.3,71,0.00,,SKC,0.00,VWS V14.01,2013-05-29 10:35:00,
2013-05-29 05:40:00,66.0,56.0,29.03,South,174,2.7,3.1,70,0.00,,SKC,0.00,VWS V14.01,2013-05-29 10:40:00,
2013-05-29 05:45:00,65.8,55.8,29.03,SSW,199,5.4,5.4,70,0.00,,SKC,0.00,VWS V14.01,2013-05-29 10:45:00,
2013-05-29 05:50:00,66.0,55.2,29.03,South,172,7.2,8.7,68,0.00,,SKC,0.00,VWS V14.01,2013-05-29 10:50:00,
2013-05-29 05:55:00,66.0,53.9,29.03,South,181,4.9,5.4,65,0.00,,SKC,0.00,VWS V14.01,2013-05-29 10:55:00,
2013-05-29 06:00:00,66.0,52.6,29.06,SSE,149,5.8,5.8,62,0.00,,SKC,0.00,VWS V14.01,2013-05-29 11:00:00,
2013-05-29 06:05:00,66.0,49.9,29.06,WSW,244,5.8,6.3,56,0.00,,SKC,0.00,VWS V14.01,2013-05-29 11:05:00,
2013-05-29 06:10:00,66.0,48.4,29.06,West,273,6.3,6.3,53,0.00,,SKC,0.00,VWS V14.01,2013-05-29 11:10:00,
2013-05-29 06:15:00,66.2,46.5,29.06,SW,214,4.9,6.7,49,0.00,,SKC,0.00,VWS V14.01,2013-05-29 11:15:00,
2013-05-29 06:20:00,66.4,45.0,29.06,SSW,193,5.4,5.8,46,0.00,,SKC,0.00,VWS V14.01,2013-05-29 11:20:00,
2013-05-29 06:25:00,66.2,44.2,29.06,SSW,211,4.0,8.1,45,0.00,,SKC,0.00,VWS V14.01,2013-05-29 11:25:00,
2013-05-29 06:30:00,66.4,44.4,29.06,WSW,256,3.1,4.0,45,0.00,,SKC,0.00,VWS V14.01,2013-05-29 11:30:00,
2013-05-29 06:35:00,66.4,43.8,29.06,West,275,4.0,4.0,44,0.00,,SKC,0.00,VWS V14.01,2013-05-29 11:35:00,
2013-05-29 06:40:00,66.4,43.2,29.06,SW,214,3.1,4.0,43,0.00,,SKC,0.00,VWS V14.01,2013-05-29 11:40:00,
2013-05-29 06:45:00,66.4,43.2,29.06,WNW,284,2.7,3.1,43,0.00,,SKC,0.00,VWS V14.01,2013-05-29 11:45:00,
2013-05-29 06:50:00,66.4,43.2,29.06,SW,236,3.1,3.1,43,0.00,,SKC,0.00,VWS V14.01,2013-05-29 11:50:00,
2013-05-29 06:55:00,66.2,43.1,29.06,South,182,2.7,3.6,43,0.00,,SKC,0.00,VWS V14.01,2013-05-29 11:55:00,
2013-05-29 07:00:00,66.2,44.2,29.06,South,182,2.7,3.1,45,0.00,,SKC,0.00,VWS V14.01,2013-05-29 12:00:00,
2013-05-29 07:05:00,66.0,46.9,29.06,South,182,3.1,3.1,50,0.00,,SKC,0.00,VWS V14.01,2013-05-29 12:05:00,
2013-05-29 07:10:00,65.7,48.6,29.06,South,181,0.0,2.2,54,0.00,,SKC,0.00,VWS V14.01,2013-05-29 12:10:00,
2013-05-29 07:15:00,65.5,48.4,29.00,South,181,2.7,2.7,54,0.00,,SKC,0.00,VWS V14.01,2013-05-29 12:15:00,
2013-05-29 07:20:00,65.7,51.0,29.00,South,181,0.0,2.7,59,0.00,,SKC,0.00,VWS V14.01,2013-05-29 12:20:00,
2013-05-29 07:25:00,65.5,53.4,29.00,SSE,168,2.7,3.1,65,0.00,,SKC,0.00,VWS V14.01,2013-05-29 12:25:00,
2013-05-29 07:30:00,65.5,53.4,29.03,SSE,167,3.1,4.0,65,0.00,,SKC,0.00,VWS V14.01,2013-05-29 12:30:00,
2013-05-29 07:35:00,65.5,49.4,29.03,South,173,2.7,3.6,56,0.00,,SKC,0.00,VWS V14.01,2013-05-29 12:35:00,
2013-05-29 07:40:00,65.8,46.7,29.03,South,172,3.1,4.0,50,0.00,,SKC,0.00,VWS V14.01,2013-05-29 12:40:00,
2013-05-29 07:45:00,66.2,47.6,29.03,SSE,167,2.7,3.6,51,0.00,,SKC,0.00,VWS V14.01,2013-05-29 12:45:00,
2013-05-29 07:50:00,66.4,44.4,29.03,South,177,4.0,4.0,45,0.00,,SKC,0.00,VWS V14.01,2013-05-29 12:50:00,
2013-05-29 07:55:00,66.7,43.5,29.03,South,186,4.0,4.0,43,0.00,,SKC,0.00,VWS V14.01,2013-05-29 12:55:00,
2013-05-29 08:00:00,67.1,43.9,29.06,South,185,3.6,3.6,43,0.00,,SKC,0.00,VWS V14.01,2013-05-29 13:00:00,
2013-05-29 08:05:00,67.3,44.0,29.06,South,171,3.1,5.8,43,0.00,,SKC,0.00,VWS V14.01,2013-05-29 13:05:00,
2013-05-29 08:10:00,67.3,41.5,29.06,South,178,3.1,5.4,39,0.00,,SKC,0.00,VWS V14.01,2013-05-29 13:10:00,
2013-05-29 08:15:00,68.0,40.1,29.06,South,180,4.9,4.9,36,0.00,,SKC,0.00,VWS V14.01,2013-05-29 13:15:00,
2013-05-29 08:20:00,68.5,41.3,29.06,South,181,4.0,4.0,37,0.00,,SKC,0.00,VWS V14.01,2013-05-29 13:20:00,
2013-05-29 08:25:00,68.2,39.5,29.06,South,174,4.9,6.3,35,0.00,,SKC,0.00,VWS V14.01,2013-05-29 13:25:00,
2013-05-29 08:30:00,68.9,38.6,29.06,South,185,3.6,4.0,33,0.00,,SKC,0.00,VWS V14.01,2013-05-29 13:30:00,
2013-05-29 08:35:00,69.6,38.5,29.06,South,176,2.7,4.9,32,0.00,,SKC,0.00,VWS V14.01,2013-05-29 13:35:00,
2013-05-29 08:40:00,70.0,42.5,29.06,SSW,193,3.1,3.1,37,0.00,,SKC,0.00,VWS V14.01,2013-05-29 13:40:00,
2013-05-29 08:45:00,69.8,39.4,29.06,SSE,158,3.1,5.8,33,0.00,,SKC,0.00,VWS V14.01,2013-05-29 13:45:00,
2013-05-29 08:50:00,70.3,39.1,29.06,South,175,7.6,7.6,32,0.00,,SKC,0.00,VWS V14.01,2013-05-29 13:50:00,
2013-05-29 08:55:00,70.5,40.1,29.06,South,175,6.3,7.6,33,0.00,,SKC,0.00,VWS V14.01,2013-05-29 13:55:00,
2013-05-29 09:00:00,70.7,39.4,29.09,SSE,166,2.7,4.9,32,0.00,,SKC,0.00,VWS V14.01,2013-05-29 14:00:00,
2013-05-29 09:05:00,71.2,39.9,29.09,South,169,2.2,5.4,32,0.00,,SKC,0.00,VWS V14.01,2013-05-29 14:05:00,
2013-05-29 09:10:00,71.4,40.8,29.09,South,172,2.2,2.7,33,0.00,,SKC,0.00,VWS V14.01,2013-05-29 14:10:00,
2013-05-29 09:15:00,71.6,40.2,29.09,South,173,2.7,3.6,32,0.00,,SKC,0.00,VWS V14.01,2013-05-29 14:15:00,
2013-05-29 09:20:00,72.1,41.5,29.09,SSE,152,2.2,2.7,33,0.00,,SKC,0.00,VWS V14.01,2013-05-29 14:20:00,
2013-05-29 09:25:00,72.1,39.9,29.09,SSE,165,2.2,5.8,31,0.00,,SKC,0.00,VWS V14.01,2013-05-29 14:25:00,
2013-05-29 09:30:00,72.1,39.9,29.09,SSE,166,0.0,0.0,31,0.00,,SKC,0.00,VWS V14.01,2013-05-29 14:30:00,
2013-05-29 09:35:00,72.0,38.0,29.09,SSE,168,0.0,2.7,29,0.00,,SKC,0.00,VWS V14.01,2013-05-29 14:35:00,
2013-05-29 09:40:00,72.0,38.9,29.09,SSE,168,0.0,0.0,30,0.00,,SKC,0.00,VWS V14.01,2013-05-29 14:40:00,
2013-05-29 09:45:00,72.0,39.7,29.09,South,171,0.0,0.0,31,0.00,,SKC,0.00,VWS V14.01,2013-05-29 14:45:00,
2013-05-29 09:50:00,72.0,40.5,29.09,South,171,0.0,2.2,32,0.00,,SKC,0.00,VWS V14.01,2013-05-29 14:50:00,
2013-05-29 09:55:00,72.1,40.7,29.09,South,171,0.0,0.0,32,0.00,,SKC,0.00,VWS V14.01,2013-05-29 14:55:00,
2013-05-29 10:00:00,72.3,40.8,29.09,South,171,0.0,0.0,32,0.00,,SKC,0.00,VWS V14.01,2013-05-29 15:00:00,
2013-05-29 10:05:00,72.5,41.0,29.09,South,171,0.0,0.0,32,0.00,,SKC,0.00,VWS V14.01,2013-05-29 15:05:00,
2013-05-29 10:10:00,72.5,35.7,29.09,NNE,17,2.7,3.1,26,0.00,,SKC,0.00,VWS V14.01,2013-05-29 15:10:00,
2013-05-29 10:15:00,72.0,34.2,29.12,North,6,2.2,2.2,25,0.00,,SKC,0.00,VWS V14.01,2013-05-29 15:15:00,
2013-05-29 10:20:00,71.8,35.1,29.12,NNW,333,2.2,2.2,26,0.00,,SKC,0.00,VWS V14.01,2013-05-29 15:20:00,
2013-05-29 10:25:00,71.4,34.8,29.12,NNE,20,0.0,3.1,26,0.00,,SKC,0.00,VWS V14.01,2013-05-29 15:25:00,
2013-05-29 10:30:00,71.1,35.4,29.12,NNE,20,0.0,0.0,27,0.00,,SKC,0.00,VWS V14.01,2013-05-29 15:30:00,
2013-05-29 10:35:00,70.9,36.2,29.12,NNE,20,0.0,0.0,28,0.00,,SKC,0.00,VWS V14.01,2013-05-29 15:35:00,
2013-05-29 10:40:00,71.2,37.4,29.12,NNE,20,0.0,0.0,29,0.00,,SKC,0.00,VWS V14.01,2013-05-29 15:40:00,
2013-05-29 10:45:00,71.6,37.7,29.12,NNE,20,0.0,0.0,29,0.00,,SKC,0.00,VWS V14.01,2013-05-29 15:45:00,
2013-05-29 10:50:00,72.0,37.1,29.12,NNE,20,2.7,3.1,28,0.00,,SKC,0.00,VWS V14.01,2013-05-29 15:50:00,
2013-05-29 10:55:00,71.4,34.8,29.12,North,5,5.4,5.4,26,0.00,,SKC,0.00,VWS V14.01,2013-05-29 15:55:00,
2013-05-29 11:00:00,70.3,34.8,29.12,NNE,26,3.1,3.1,27,0.00,,SKC,0.00,VWS V14.01,2013-05-29 16:00:00,
2013-05-29 11:05:00,69.8,35.3,29.12,NNE,21,0.0,0.0,28,0.00,,SKC,0.00,VWS V14.01,2013-05-29 16:05:00,
2013-05-29 11:10:00,69.8,35.3,29.12,NNE,24,3.1,3.6,28,0.00,,SKC,0.00,VWS V14.01,2013-05-29 16:10:00,
2013-05-29 11:15:00,69.6,36.8,29.12,NNE,22,6.3,6.3,30,0.00,,SKC,0.00,VWS V14.01,2013-05-29 16:15:00,
2013-05-29 11:20:00,68.9,37.8,29.12,NNE,18,5.4,5.4,32,0.00,,SKC,0.00,VWS V14.01,2013-05-29 16:20:00,
2013-05-29 11:25:00,68.2,37.2,29.12,NNE,18,3.6,3.6,32,0.00,,SKC,0.00,VWS V14.01,2013-05-29 16:25:00,
2013-05-29 11:30:00,67.6,37.5,29.12,NNE,18,0.0,3.1,33,0.00,,SKC,0.00,VWS V14.01,2013-05-29 16:30:00,
2013-05-29 11:35:00,67.3,37.2,29.12,NNE,18,0.0,0.0,33,0.00,,SKC,0.00,VWS V14.01,2013-05-29 16:35:00,
2013-05-29 11:40:00,67.8,39.2,29.12,NNE,18,2.2,4.0,35,0.00,,SKC,0.00,VWS V14.01,2013-05-29 16:40:00,
2013-05-29 11:45:00,68.0,38.6,29.12,NNE,18,0.0,0.0,34,0.00,,SKC,0.00,VWS V14.01,2013-05-29 16:45:00,
2013-05-29 11:50:00,68.5,39.1,29.12,NNE,18,2.7,4.0,34,0.00,,SKC,0.00,VWS V14.01,2013-05-29 16:50:00,
2013-05-29 11:55:00,68.5,39.1,29.12,NNE,18,0.0,0.0,34,0.00,,SKC,0.00,VWS V14.01,2013-05-29 16:55:00,
2013-05-29 12:00:00,68.5,38.3,29.12,NNE,28,2.7,3.6,33,0.00,,SKC,0.00,VWS V14.01,2013-05-29 17:00:00,
2013-05-29 12:05:00,68.2,38.0,29.12,NE,34,0.0,2.2,33,0.00,,SKC,0.00,VWS V14.01,2013-05-29 17:05:00,
2013-05-29 12:10:00,68.2,38.0,29.12,NNE,30,2.2,2.7,33,0.00,,SKC,0.00,VWS V14.01,2013-05-29 17:10:00,
2013-05-29 12:15:00,68.2,38.8,29.12,NNE,32,2.7,4.9,34,0.00,,SKC,0.00,VWS V14.01,2013-05-29 17:15:00,
2013-05-29 12:20:00,68.4,38.2,29.12,NNE,20,0.0,0.0,33,0.00,,SKC,0.00,VWS V14.01,2013-05-29 17:20:00,
2013-05-29 12:25:00,68.7,38.5,29.12,NE,34,0.0,3.1,33,0.00,,SKC,0.00,VWS V14.01,2013-05-29 17:25:00,
2013-05-29 12:30:00,69.1,38.8,29.12,NE,41,2.7,4.0,33,0.00,,SKC,0.00,VWS V14.01,2013-05-29 17:30:00,
2013-05-29 12:35:00,69.3,39.0,29.12,NE,36,2.2,2.2,33,0.00,,SKC,0.00,VWS V14.01,2013-05-29 17:35:00,
2013-05-29 12:40:00,70.0,39.6,29.12,NNE,33,2.7,2.7,33,0.00,,SKC,0.00,VWS V14.01,2013-05-29 17:40:00,
2013-05-29 12:45:00,70.5,39.3,29.12,NE,39,3.6,3.6,32,0.00,,SKC,0.00,VWS V14.01,2013-05-29 17:45:00,
2013-05-29 12:50:00,70.9,39.6,29.12,NE,44,0.0,0.0,32,0.00,,SKC,0.00,VWS V14.01,2013-05-29 17:50:00,
2013-05-29 12:55:00,71.2,37.4,29.12,NE,40,2.2,2.2,29,0.00,,SKC,0.00,VWS V14.01,2013-05-29 17:55:00,
2013-05-29 13:00:00,71.2,37.4,29.12,NNE,27,0.0,0.0,29,0.00,,SKC,0.00,VWS V14.01,2013-05-29 18:00:00,
2013-05-29 13:05:00,71.6,37.7,29.12,NNE,28,0.0,0.0,29,0.00,,SKC,0.00,VWS V14.01,2013-05-29 18:05:00,
2013-05-29 13:10:00,72.3,39.2,29.12,NNE,32,2.2,2.2,30,0.00,,SKC,0.00,VWS V14.01,2013-05-29 18:10:00,
2013-05-29 13:15:00,73.2,38.2,29.09,NNE,32,2.7,2.7,28,0.00,,SKC,0.00,VWS V14.01,2013-05-29 18:15:00,
2013-05-29 13:20:00,73.2,35.3,29.09,NE,38,0.0,0.0,25,0.00,,SKC,0.00,VWS V14.01,2013-05-29 18:20:00,
2013-05-29 13:25:00,73.4,35.5,29.09,NE,38,0.0,0.0,25,0.00,,SKC,0.00,VWS V14.01,2013-05-29 18:25:00,
2013-05-29 13:30:00,73.0,34.1,29.09,NE,38,0.0,0.0,24,0.00,,SKC,0.00,VWS V14.01,2013-05-29 18:30:00,
2013-05-29 13:35:00,73.2,36.3,29.09,NE,38,0.0,0.0,26,0.00,,SKC,0.00,VWS V14.01,2013-05-29 18:35:00,
2013-05-29 13:40:00,73.0,35.2,29.09,NE,38,0.0,0.0,25,0.00,,SKC,0.00,VWS V14.01,2013-05-29 18:40:00,
2013-05-29 13:45:00,72.3,34.6,29.09,NE,35,4.0,4.9,25,0.00,,SKC,0.00,VWS V14.01,2013-05-29 18:45:00,
2013-05-29 13:50:00,71.2,33.6,29.09,NE,36,0.0,0.0,25,0.00,,SKC,0.00,VWS V14.01,2013-05-29 18:50:00,
2013-05-29 13:55:00,70.7,34.2,29.09,ENE,65,0.0,0.0,26,0.00,,SKC,0.00,VWS V14.01,2013-05-29 18:55:00,
2013-05-29 14:00:00,70.5,35.9,29.09,ENE,64,0.0,0.0,28,0.00,,SKC,0.00,VWS V14.01,2013-05-29 19:00:00,
2013-05-29 14:05:00,70.3,36.6,29.09,ENE,65,0.0,0.0,29,0.00,,SKC,0.00,VWS V14.01,2013-05-29 19:05:00,
2013-05-29 14:10:00,70.3,39.1,29.09,ENE,71,2.7,2.7,32,0.00,,SKC,0.00,VWS V14.01,2013-05-29 19:10:00,
2013-05-29 14:15:00,69.8,39.4,29.12,East,86,0.0,0.0,33,0.08,,SKC,0.08,VWS V14.01,2013-05-29 19:15:00,
2013-05-29 14:20:00,69.1,41.7,29.12,ENE,66,0.0,2.7,37,0.20,,SKC,0.20,VWS V14.01,2013-05-29 19:20:00,
2013-05-29 14:25:00,68.7,45.3,29.12,ENE,66,0.0,0.0,43,0.20,,SKC,0.20,VWS V14.01,2013-05-29 19:25:00,
2013-05-29 14:30:00,69.4,48.3,29.12,ENE,66,0.0,0.0,47,0.20,,SKC,0.20,VWS V14.01,2013-05-29 19:30:00,
2013-05-29 14:35:00,70.7,52.2,29.12,ENE,66,0.0,0.0,52,0.20,,SKC,0.20,VWS V14.01,2013-05-29 19:35:00,
2013-05-29 14:40:00,71.6,55.6,29.12,NNE,27,0.0,2.7,57,0.20,,SKC,0.20,VWS V14.01,2013-05-29 19:40:00,
2013-05-29 14:45:00,71.2,48.8,29.09,NNE,28,0.0,0.0,45,0.20,,SKC,0.20,VWS V14.01,2013-05-29 19:45:00,
2013-05-29 14:50:00,70.9,46.7,29.09,NNE,29,0.0,0.0,42,0.20,,SKC,0.20,VWS V14.01,2013-05-29 19:50:00,
2013-05-29 14:55:00,70.3,45.5,29.09,NNE,29,0.0,0.0,41,0.20,,SKC,0.20,VWS V14.01,2013-05-29 19:55:00,
2013-05-29 15:00:00,70.0,45.9,29.09,NNE,29,0.0,0.0,42,0.20,,SKC,0.20,VWS V14.01,2013-05-29 20:00:00,
2013-05-29 15:05:00,70.3,48.0,29.09,NNE,29,0.0,0.0,45,0.20,,SKC,0.20,VWS V14.01,2013-05-29 20:05:00,
2013-05-29 15:10:00,70.5,48.8,29.09,NNE,29,0.0,0.0,46,0.20,,SKC,0.20,VWS V14.01,2013-05-29 20:10:00,
2013-05-29 15:15:00,70.0,47.1,29.09,NNE,29,0.0,0.0,44,0.12,,SKC,0.20,VWS V14.01,2013-05-29 20:15:00,
2013-05-29 15:20:00,69.8,46.3,29.09,NNE,29,0.0,0.0,43,0.00,,SKC,0.20,VWS V14.01,2013-05-29 20:20:00,
2013-05-29 15:25:00,69.8,46.3,29.09,NNE,29,0.0,0.0,43,0.00,,SKC,0.20,VWS V14.01,2013-05-29 20:25:00,
2013-05-29 15:30:00,69.8,46.9,29.09,NNE,29,0.0,0.0,44,0.00,,SKC,0.20,VWS V14.01,2013-05-29 20:30:00,
2013-05-29 15:35:00,70.2,47.8,29.09,NNE,29,0.0,0.0,45,0.04,,SKC,0.24,VWS V14.01,2013-05-29 20:35:00,
2013-05-29 15:40:00,70.2,50.7,29.09,NNE,29,0.0,0.0,50,0.04,,SKC,0.24,VWS V14.01,2013-05-29 20:40:00,
2013-05-29 15:45:00,70.7,54.2,29.09,NNE,29,0.0,0.0,56,0.04,,SKC,0.24,VWS V14.01,2013-05-29 20:45:00,
2013-05-29 15:50:00,71.1,56.5,29.09,NNE,29,0.0,0.0,60,0.04,,SKC,0.24,VWS V14.01,2013-05-29 20:50:00,
2013-05-29 15:55:00,72.3,59.0,29.09,NNE,29,0.0,0.0,63,0.04,,SKC,0.24,VWS V14.01,2013-05-29 20:55:00,
2013-05-29 16:00:00,73.4,60.9,29.06,NNE,29,0.0,0.0,65,0.04,,SKC,0.24,VWS V14.01,2013-05-29 21:00:00,
2013-05-29 16:05:00,73.4,60.5,29.06,NNE,29,0.0,0.0,64,0.04,,SKC,0.24,VWS V14.01,2013-05-29 21:05:00,
2013-05-29 16:10:00,73.8,60.8,29.06,NNE,29,0.0,0.0,64,0.04,,SKC,0.24,VWS V14.01,2013-05-29 21:10:00,
2013-05-29 16:15:00,75.0,62.9,29.06,NNE,29,0.0,0.0,66,0.04,,SKC,0.24,VWS V14.01,2013-05-29 21:15:00,
2013-05-29 16:20:00,73.8,51.7,29.06,NNE,33,0.0,0.0,46,0.04,,SKC,0.24,VWS V14.01,2013-05-29 21:20:00,
2013-05-29 16:24:00,74.3,51.0,29.06,NNE,33,0.0,0.0,44,0.04,,SKC,0.24,VWS V14.01,2013-05-29 21:24:00,
2013-05-29 16:29:00,74.5,49.3,29.09,NE,41,3.1,3.6,41,0.04,,SKC,0.24,VWS V14.01,2013-05-29 21:29:00,
2013-05-29 16:34:00,73.6,42.7,29.09,NE,39,2.7,2.7,33,0.00,,SKC,0.24,VWS V14.01,2013-05-29 21:34:00,
2013-05-29 16:39:00,73.4,44.1,29.09,NE,39,0.0,0.0,35,0.00,,SKC,0.24,VWS V14.01,2013-05-29 21:39:00,
2013-05-29 16:44:00,73.6,47.8,29.12,SSE,148,0.0,0.0,40,0.00,,SKC,0.24,VWS V14.01,2013-05-29 21:44:00,
2013-05-29 16:49:00,73.8,51.1,29.12,SSE,156,0.0,0.0,45,0.00,,SKC,0.24,VWS V14.01,2013-05-29 21:49:00,
2013-05-29 16:54:00,74.3,52.2,29.12,SSE,157,0.0,0.0,46,0.00,,SKC,0.24,VWS V14.01,2013-05-29 21:54:00,
2013-05-29 16:59:00,74.8,54.4,29.12,SSE,157,0.0,0.0,49,0.00,,SKC,0.24,VWS V14.01,2013-05-29 21:59:00,
2013-05-29 17:04:00,74.8,53.3,29.12,SSE,156,0.0,0.0,47,0.00,,SKC,0.24,VWS V14.01,2013-05-29 22:04:00,
2013-05-29 17:09:00,75.0,52.9,29.12,SSE,156,0.0,0.0,46,0.00,,SKC,0.24,VWS V14.01,2013-05-29 22:09:00,
2013-05-29 17:14:00,75.4,54.3,29.09,SSE,156,0.0,0.0,48,0.00,,SKC,0.24,VWS V14.01,2013-05-29 22:14:00,
2013-05-29 17:19:00,75.6,51.5,29.09,South,174,0.0,0.0,43,0.00,,SKC,0.24,VWS V14.01,2013-05-29 22:19:00,
2013-05-29 17:24:00,75.9,51.8,29.09,SSE,166,0.0,0.0,43,0.00,,SKC,0.24,VWS V14.01,2013-05-29 22:24:00,
2013-05-29 17:29:00,76.5,50.4,29.09,SSE,166,0.0,0.0,40,0.00,,SKC,0.24,VWS V14.01,2013-05-29 22:29:00,
2013-05-29 17:34:00,76.5,51.0,29.09,SSE,166,0.0,0.0,41,0.00,,SKC,0.24,VWS V14.01,2013-05-29 22:34:00,
2013-05-29 17:39:00,76.6,44.6,29.09,SSE,166,0.0,2.2,32,0.00,,SKC,0.24,VWS V14.01,2013-05-29 22:39:00,
2013-05-29 17:44:00,77.2,43.4,29.09,SSE,160,2.7,4.0,30,0.00,,SKC,0.24,VWS V14.01,2013-05-29 22:44:00,
2013-05-29 17:49:00,77.7,45.5,29.09,SSW,192,2.2,2.2,32,0.00,,SKC,0.24,VWS V14.01,2013-05-29 22:49:00,
2013-05-29 17:54:00,77.7,44.7,29.09,South,187,0.0,0.0,31,0.00,,SKC,0.24,VWS V14.01,2013-05-29 22:54:00,
2013-05-29 17:59:00,77.9,44.0,29.09,South,177,5.4,5.4,30,0.00,,SKC,0.24,VWS V14.01,2013-05-29 22:59:00,
2013-05-29 18:04:00,77.7,43.8,29.09,South,189,3.6,3.6,30,0.00,,SKC,0.24,VWS V14.01,2013-05-29 23:04:00,
2013-05-29 18:09:00,77.9,46.5,29.09,South,178,0.0,0.0,33,0.00,,SKC,0.24,VWS V14.01,2013-05-29 23:09:00,
2013-05-29 18:14:00,77.5,45.4,29.06,South,190,4.0,4.5,32,0.00,,SKC,0.24,VWS V14.01,2013-05-29 23:14:00,
2013-05-29 18:19:00,77.5,41.0,29.06,South,188,2.2,2.7,27,0.00,,SKC,0.24,VWS V14.01,2013-05-29 23:19:00,
2013-05-29 18:24:00,77.9,42.2,29.06,SSE,148,2.7,3.1,28,0.00,,SKC,0.24,VWS V14.01,2013-05-29 23:24:00,
2013-05-29 18:29:00,78.3,42.5,29.09,South,186,4.5,4.5,28,0.00,,SKC,0.24,VWS V14.01,2013-05-29 23:29:00,
2013-05-29 18:34:00,78.4,42.7,29.09,South,189,2.7,5.4,28,0.00,,SKC,0.24,VWS V14.01,2013-05-29 23:34:00,
2013-05-29 18:39:00,77.9,38.2,29.09,South,175,2.7,4.0,24,0.00,,SKC,0.24,VWS V14.01,2013-05-29 23:39:00,
2013-05-29 18:44:00,78.3,38.5,29.09,South,178,0.0,3.1,24,0.00,,SKC,0.24,VWS V14.01,2013-05-29 23:44:00,
2013-05-29 18:49:00,78.3,38.5,29.09,South,187,2.7,3.1,24,0.00,,SKC,0.24,VWS V14.01,2013-05-29 23:49:00,
2013-05-29 18:54:00,78.3,37.5,29.09,South,182,0.0,0.0,23,0.00,,SKC,0.24,VWS V14.01,2013-05-29 23:54:00,
2013-05-29 18:59:00,78.1,38.4,29.09,South,180,2.7,3.1,24,0.00,,SKC,0.24,VWS V14.01,2013-05-29 23:59:00,
2013-05-29 19:04:00,78.1,37.3,29.09,South,177,3.6,4.9,23,0.00,,SKC,0.24,VWS V14.01,2013-05-30 00:04:00,
2013-05-29 19:09:00,77.9,36.0,29.09,South,186,2.7,4.0,22,0.00,,SKC,0.24,VWS V14.01,2013-05-30 00:09:00,
2013-05-29 19:14:00,78.3,41.6,29.09,SSE,165,4.0,4.0,27,0.00,,SKC,0.24,VWS V14.01,2013-05-30 00:14:00,
2013-05-29 19:19:00,77.5,42.8,29.09,South,178,0.0,3.6,29,0.00,,SKC,0.24,VWS V14.01,2013-05-30 00:19:00,
2013-05-29 19:24:00,77.5,37.9,29.09,South,174,0.0,2.7,24,0.00,,SKC,0.24,VWS V14.01,2013-05-30 00:24:00,
2013-05-29 19:29:00,77.7,37.0,29.06,South,181,0.0,3.6,23,0.00,,SKC,0.24,VWS V14.01,2013-05-30 00:29:00,
2013-05-29 19:34:00,77.4,38.8,29.06,SSE,161,0.0,0.0,25,0.00,,SKC,0.24,VWS V14.01,2013-05-30 00:34:00,
2013-05-29 19:39:00,77.0,40.5,29.06,SSW,195,0.0,0.0,27,0.00,,SKC,0.24,VWS V14.01,2013-05-30 00:39:00,
2013-05-29 19:44:00,76.8,39.4,29.06,SSW,206,2.7,2.7,26,0.00,,SKC,0.24,VWS V14.01,2013-05-30 00:44:00,
2013-05-29 19:49:00,76.6,38.2,29.06,SSW,195,0.0,0.0,25,0.00,,SKC,0.24,VWS V14.01,2013-05-30 00:49:00,
2013-05-29 19:54:00,76.5,44.4,29.06,South,174,3.1,3.1,32,0.00,,SKC,0.24,VWS V14.01,2013-05-30 00:54:00,
2013-05-29 19:59:00,75.9,39.6,29.06,South,173,0.0,3.6,27,0.00,,SKC,0.24,VWS V14.01,2013-05-30 00:59:00,
2013-05-29 20:04:00,76.1,39.7,29.06,SSW,200,0.0,3.1,27,0.00,,SKC,0.24,VWS V14.01,2013-05-30 01:04:00,
2013-05-29 20:09:00,75.9,39.6,29.06,South,191,0.0,2.2,27,0.00,,SKC,0.24,VWS V14.01,2013-05-30 01:09:00,
2013-05-29 20:14:00,75.7,41.3,29.06,South,187,0.0,2.7,29,0.00,,SKC,0.24,VWS V14.01,2013-05-30 01:14:00,
2013-05-29 20:19:00,75.6,42.0,29.06,South,186,0.0,0.0,30,0.00,,SKC,0.24,VWS V14.01,2013-05-30 01:19:00,
2013-05-29 20:24:00,75.6,43.7,29.06,South,178,0.0,3.1,32,0.00,,SKC,0.24,VWS V14.01,2013-05-30 01:24:00,
2013-05-29 20:29:00,74.8,43.0,29.06,South,175,0.0,0.0,32,0.00,,SKC,0.24,VWS V14.01,2013-05-30 01:29:00,
2013-05-29 20:34:00,74.5,42.7,29.06,South,175,0.0,0.0,32,0.00,,SKC,0.24,VWS V14.01,2013-05-30 01:34:00,
2013-05-29 20:39:00,74.5,44.3,29.06,South,175,0.0,2.2,34,0.00,,SKC,0.24,VWS V14.01,2013-05-30 01:39:00,
2013-05-29 20:44:00,73.9,43.8,29.09,SSW,195,0.0,0.0,34,0.00,,SKC,0.24,VWS V14.01,2013-05-30 01:44:00,
2013-05-29 20:49:00,73.8,42.9,29.09,South,171,0.0,2.2,33,0.00,,SKC,0.24,VWS V14.01,2013-05-30 01:49:00,
2013-05-29 20:54:00,73.8,44.4,29.09,South,179,0.0,2.2,35,0.00,,SKC,0.24,VWS V14.01,2013-05-30 01:54:00,
2013-05-29 20:59:00,73.6,43.5,29.09,South,171,0.0,2.7,34,0.00,,SKC,0.24,VWS V14.01,2013-05-30 01:59:00,
2013-05-29 21:04:00,73.8,42.9,29.09,South,177,4.0,4.0,33,0.00,,SKC,0.24,VWS V14.01,2013-05-30 02:04:00,
2013-05-29 21:09:00,73.9,41.4,29.09,South,177,4.0,5.4,31,0.00,,SKC,0.24,VWS V14.01,2013-05-30 02:09:00,
2013-05-29 21:14:00,74.3,42.6,29.06,SSE,168,0.0,3.6,32,0.00,,SKC,0.24,VWS V14.01,2013-05-30 02:14:00,
2013-05-29 21:19:00,73.9,41.4,29.06,South,185,2.7,3.1,31,0.00,,SKC,0.24,VWS V14.01,2013-05-30 02:19:00,
2013-05-29 21:24:00,74.1,42.4,29.06,SSE,167,2.7,2.7,32,0.00,,SKC,0.24,VWS V14.01,2013-05-30 02:24:00,
2013-05-29 21:29:00,73.8,41.3,29.09,South,177,2.7,3.6,31,0.00,,SKC,0.24,VWS V14.01,2013-05-30 02:29:00,
2013-05-29 21:34:00,73.6,41.9,29.09,South,177,0.0,0.0,32,0.00,,SKC,0.24,VWS V14.01,2013-05-30 02:34:00,
2013-05-29 21:39:00,73.4,41.8,29.09,South,177,2.2,3.1,32,0.00,,SKC,0.24,VWS V14.01,2013-05-30 02:39:00,
2013-05-29 21:44:00,72.9,42.1,29.09,South,188,2.7,4.0,33,0.00,,SKC,0.24,VWS V14.01,2013-05-30 02:44:00,
2013-05-29 21:49:00,72.5,41.8,29.09,SSE,161,0.0,3.1,33,0.00,,SKC,0.24,VWS V14.01,2013-05-30 02:49:00,
2013-05-29 21:54:00,72.7,42.0,29.09,South,175,0.0,2.2,33,0.00,,SKC,0.24,VWS V14.01,2013-05-30 02:54:00,
2013-05-29 21:59:00,72.7,42.0,29.09,SSE,168,0.0,2.7,33,0.00,,SKC,0.24,VWS V14.01,2013-05-30 02:59:00,
2013-05-29 22:04:00,72.7,41.2,29.09,SSE,168,0.0,3.1,32,0.00,,SKC,0.24,VWS V14.01,2013-05-30 03:04:00,
2013-05-29 22:09:00,72.7,41.2,29.09,South,183,2.7,3.6,32,0.00,,SKC,0.24,VWS V14.01,2013-05-30 03:09:00,
2013-05-29 22:14:00,72.5,41.0,29.09,South,179,2.7,3.1,32,0.00,,SKC,0.24,VWS V14.01,2013-05-30 03:14:00,
2013-05-29 22:19:00,72.5,41.0,29.09,South,178,2.7,3.1,32,0.00,,SKC,0.24,VWS V14.01,2013-05-30 03:19:00,
2013-05-29 22:24:00,72.3,40.8,29.09,South,189,5.8,5.8,32,0.00,,SKC,0.24,VWS V14.01,2013-05-30 03:24:00,
2013-05-29 22:29:00,72.9,41.3,29.09,South,172,3.1,3.6,32,0.00,,SKC,0.24,VWS V14.01,2013-05-30 03:29:00,
2013-05-29 22:34:00,72.3,39.2,29.09,South,176,2.7,2.7,30,0.00,,SKC,0.24,VWS V14.01,2013-05-30 03:34:00,
2013-05-29 22:39:00,72.5,40.2,29.09,South,186,3.1,3.1,31,0.00,,SKC,0.24,VWS V14.01,2013-05-30 03:39:00,
2013-05-29 22:44:00,72.0,38.9,29.09,South,178,3.6,3.6,30,0.00,,SKC,0.24,VWS V14.01,2013-05-30 03:44:00,
2013-05-29 22:49:00,72.3,39.2,29.09,South,177,2.7,2.7,30,0.00,,SKC,0.24,VWS V14.01,2013-05-30 03:49:00,
2013-05-29 22:54:00,72.1,37.3,29.09,South,179,2.7,2.7,28,0.00,,SKC,0.24,VWS V14.01,2013-05-30 03:54:00,
2013-05-29 22:59:00,72.0,38.9,29.09,South,177,0.0,2.7,30,0.00,,SKC,0.24,VWS V14.01,2013-05-30 03:59:00,
2013-05-29 23:01:00,72.0,39.7,29.09,South,177,2.7,3.1,31,0.00,,SKC,0.24,VWS V14.01,2013-05-30 04:01:00,
2013-05-29 23:06:00,71.4,37.5,29.09,South,190,0.0,3.1,29,0.00,,SKC,0.24,VWS V14.01,2013-05-30 04:06:00,
2013-05-29 23:11:00,71.4,38.4,29.09,South,181,3.6,3.6,30,0.00,,SKC,0.24,VWS V14.01,2013-05-30 04:11:00,
2013-05-29 23:16:00,71.1,39.7,29.09,SSE,166,2.7,2.7,32,0.00,,SKC,0.24,VWS V14.01,2013-05-30 04:16:00,
2013-05-29 23:21:00,71.2,39.9,29.09,South,173,2.7,3.6,32,0.00,,SKC,0.24,VWS V14.01,2013-05-30 04:21:00,
2013-05-29 23:26:00,70.9,37.1,29.09,SSW,201,4.0,4.5,29,0.00,,SKC,0.24,VWS V14.01,2013-05-30 04:26:00,
2013-05-29 23:31:00,71.2,39.9,29.09,South,181,2.7,2.7,32,0.00,,SKC,0.24,VWS V14.01,2013-05-30 04:31:00,
2013-05-29 23:36:00,71.1,37.2,29.09,SSW,192,2.2,2.2,29,0.00,,SKC,0.24,VWS V14.01,2013-05-30 04:36:00,
2013-05-29 23:41:00,71.1,39.7,29.09,South,181,0.0,0.0,32,0.00,,SKC,0.24,VWS V14.01,2013-05-30 04:41:00,
2013-05-29 23:46:00,71.1,38.9,29.12,South,178,3.1,3.1,31,0.00,,SKC,0.24,VWS V14.01,2013-05-30 04:46:00,
2013-05-29 23:51:00,70.9,38.8,29.12,South,190,3.1,3.1,31,0.00,,SKC,0.24,VWS V14.01,2013-05-30 04:51:00,
2013-05-29 23:56:00,70.7,38.6,29.12,South,187,2.7,2.7,31,0.00,,SKC,0.24,VWS V14.01,2013-05-30 04:56:00,